Location: Newark
(34.1333°N, 7.9667°W)
Time: 09:17:45
(UTC+00:00)

S-56A Canister/Altair - Pass Details

Date: 06 December 2021
Orbit: 634 x 2499 km, 38.9° (Epoch: 25 January)

Event Time Altitude Azimuth Distance (km) Brightness Sun altitude
Rises 19:17:15 0° 181° (S) 6,149 12.3 -23.2°
Reaches altitude 10° 19:24:49 10° 159° (SSE) 4,984 11.5 -24.8°
Maximum altitude 19:30:13 13° 136° (SE) 4,511 11.1 -25.8°
Enters shadow 19:31:25 13° 130° (SE) 4,469 11.0 -26.1°
